QPF
0.01 0.00 0.00 0.00 0.00 0.00 0.00 0.00 0.00 0.01 0.01 0.01 0.01 0.01 0.01 0.01 0.01 0.01 0.01 0.04 0.06 0.10 0.12 0.08 0.07 0.09 0.11 0.09 0.06 0.05 0.07 0.07 0.07 0.07 0.07 0.06 0.06 0.06 0.06 0.07 0.09 0.13 0.21
0.01 0.01 0.01 0.00 0.00 0.00 0.00 0.00 0.01 0.01 0.02 0.02 0.02 0.02 0.02 0.03 0.02 0.01 0.01 0.02 0.06 0.09 0.09 0.07 0.07 0.11 0.14 0.12 0.08 0.07 0.07 0.07 0.07 0.06 0.06 0.07 0.06 0.06 0.06 0.07 0.11 0.11 0.15
0.01 0.00 0.01 0.00 0.00 0.00 0.00 0.00 0.01 0.01 0.01 0.02 0.02 0.02 0.04 0.04 0.02 0.02 0.02 0.02 0.03 0.04 0.05 0.04 0.04 0.07 0.11 0.11 0.08 0.09 0.11 0.10 0.09 0.08 0.08 0.07 0.06 0.06 0.05 0.06 0.08 0.11 0.13
0.00 0.00 0.00 0.01 0.01 0.00 0.00 0.00 0.00 0.01 0.01 0.02 0.02 0.02 0.02 0.02 0.04 0.03 0.01 0.01 0.02 0.02 0.02 0.02 0.02 0.03 0.05 0.06 0.06 0.09 0.21 0.22 0.19 0.15 0.11 0.08 0.06 0.06 0.05 0.05 0.06 0.08 0.12
0.00 0.00 0.01 0.01 0.00 0.00 0.00 0.00 0.01 0.00 0.01 0.01 0.01 0.01 0.02 0.02 0.03 0.03 0.02 0.01 0.01 0.01 0.01 0.01 0.02 0.02 0.03 0.05 0.06 0.08 0.20 0.35 0.31 0.25 0.16 0.10 0.07 0.06 0.04 0.05 0.07 0.11 0.16
0.00 0.00 0.00 0.00 0.00 0.00 0.00 0.00 0.01 0.02 0.01 0.01 0.01 0.01 0.02 0.03 0.02 0.02 0.01 0.01 0.01 0.01 0.00 0.01 0.01 0.01 0.02 0.04 0.05 0.06 0.08 0.20 0.26 0.23 0.16 0.10 0.08 0.08 0.09 0.10 0.12 0.17 0.20
0.00 0.00 0.00 0.01 0.00 0.00 0.00 0.00 0.00 0.01 0.01 0.01 0.01 0.02 0.03 0.02 0.02 0.01 0.01 0.00 0.01 0.01 0.01 0.02 0.00 0.01 0.01 0.03 0.05 0.06 0.05 0.05 0.08 0.09 0.10 0.08 0.07 0.07 0.11 0.17 0.20 0.19 0.19
0.01 0.00 0.00 0.00 0.01 0.00 0.00 0.00 0.00 0.01 0.01 0.01 0.02 0.03 0.02 0.02 0.02 0.02 0.01 0.00 0.01 0.01 0.01 0.01 0.00 0.00 0.01 0.04 0.03 0.04 0.04 0.04 0.05 0.05 0.06 0.06 0.06 0.07 0.08 0.12 0.15 0.17 0.16
0.00 0.00 0.00 0.00 0.00 0.00 0.01 0.00 0.00 0.00 0.00 0.01 0.01 0.01 0.01 0.01 0.01 0.02 0.01 0.01 0.01 0.01 0.01 0.01 0.01 0.00 0.01 0.07 0.06 0.03 0.03 0.04 0.05 0.06 0.05 0.06 0.06 0.07 0.08 0.10 0.11 0.13 0.13
0.00 0.00 0.00 0.00 0.00 0.00 0.00 0.00 0.01 0.01 0.00 0.00 0.00 0.00 0.00 0.01 0.00 0.01 0.01 0.01 0.01 0.02 0.02 0.02 0.01 0.01 0.02 0.06 0.10 0.07 0.04 0.03 0.04 0.05 0.06 0.06 0.06 0.05 0.06 0.07 0.09 0.09 0.10
0.00 0.00 0.01 0.01 0.00 0.00 0.00 0.00 0.00 0.00 0.00 0.00 0.00 0.01 0.00 0.00 0.00 0.01 0.01 0.01 0.01 0.01 0.01 0.03 0.03 0.03 0.02 0.03 0.08 0.09 0.06 0.04 0.03 0.03 0.03 0.04 0.04 0.03 0.04 0.06 0.05 0.05 0.05
0.00 0.00 0.01 0.00 0.00 0.00 0.00 0.00 0.00 0.00 0.00 0.00 0.01 0.01 0.01 0.00 0.00 0.01 0.01 0.01 0.01 0.01 0.01 0.03 0.03 0.03 0.03 0.02 0.02 0.04 0.06 0.05 0.04 0.02 0.02 0.02 0.02 0.02 0.03 0.07 0.08 0.07 0.05
0.01 0.00 0.00 0.00 0.00 0.00 0.00 0.00 0.00 0.00 0.00 0.00 0.00 0.01 0.01 0.01 0.01 0.01 0.01 0.00 0.01 0.01 0.01 0.02 0.02 0.03 0.03 0.03 0.02 0.01 0.02 0.04 0.04 0.03 0.02 0.01 0.01 0.01 0.02 0.04 0.09 0.10 0.10
0.00 0.00 0.00 0.00 0.01 0.00 0.00 0.00 0.00 0.01 0.00 0.00 0.00 0.00 0.01 0.00 0.00 0.01 0.00 0.00 0.00 0.00 0.00 0.01 0.03 0.03 0.03 0.02 0.01 0.00 0.00 0.01 0.01 0.01 0.01 0.01 0.01 0.01 0.00 0.01 0.05 0.07 0.05
0.00 0.00 0.00 0.00 0.00 0.00 0.00 0.00 0.01 0.01 0.00 0.01 0.00 0.00 0.00 0.00 0.00 0.00 0.00 0.00 0.00 0.00 0.00 0.00 0.01 0.01 0.01 0.01 0.01 0.00 0.00 0.00 0.00 0.00 0.00 0.00 0.01 0.01 0.00 0.00 0.01 0.02 0.02
0.00 0.00 0.00 0.00 0.00 0.00 0.00 0.00 0.01 0.01 0.01 0.00 0.00 0.00 0.00 0.00 0.00 0.00 0.01 0.00 0.00 0.00 0.00 0.00 0.00 0.00 0.01 0.01 0.01 0.00 0.00 0.01 0.01 0.01 0.00 0.01 0.01 0.02 0.01 0.00 0.00 0.00 0.00
0.00 0.00 0.00 0.00 0.00 0.00 0.00 0.00 0.00 0.00 0.00 0.01 0.01 0.00 0.00 0.00 0.00 0.00 0.01 0.01 0.00 0.00 0.00 0.00 0.00 0.00 0.00 0.01 0.01 0.00 0.00 0.01 0.01 0.01 0.01 0.01 0.01 0.02 0.02 0.00 0.00 0.00 0.00
0.00 0.00 0.00 0.00 0.00 0.00 0.00 0.00 0.00 0.00 0.00 0.01 0.01 0.01 0.00 0.01 0.01 0.01 0.01 0.00 0.00 0.00 0.00 0.00 0.00 0.00 0.00 0.01 0.01 0.01 0.00 0.01 0.03 0.01 0.01 0.01 0.01 0.02 0.02 0.00 0.00 0.00 0.00
0.00 0.00 0.00 0.00 0.00 0.00 0.00 0.00 0.00 0.00 0.00 0.02 0.02 0.01 0.00 0.00 0.00 0.01 0.01 0.00 0.00 0.00 0.00 0.01 0.01 0.01 0.00 0.00 0.02 0.01 0.01 0.01 0.04 0.02 0.02 0.01 0.01 0.02 0.01 0.00 0.00 0.00 0.00
0.00 0.00 0.00 0.00 0.00 0.00 0.00 0.00 0.00 0.00 0.00 0.01 0.01 0.01 0.00 0.00 0.01 0.01 0.01 0.01 0.01 0.00 0.00 0.02 0.03 0.02 0.01 0.00 0.01 0.02 0.01 0.01 0.03 0.02 0.01 0.01 0.01 0.01 0.01 0.00 0.00 0.01 0.01
0.01 0.00 0.00 0.00 0.00 0.00 0.00 0.00 0.00 0.00 0.00 0.00 0.00 0.01 0.01 0.01 0.01 0.02 0.01 0.02 0.01 0.01 0.01 0.01 0.01 0.01 0.01 0.01 0.01 0.02 0.01 0.01 0.01 0.02 0.01 0.01 0.01 0.01 0.01 0.01 0.01 0.01 0.00
0.01 0.00 0.00 0.00 0.00 0.00 0.00 0.00 0.00 0.01 0.00 0.01 0.01 0.00 0.00 0.01 0.01 0.02 0.01 0.01 0.01 0.01 0.01 0.01 0.01 0.01 0.01 0.01 0.01 0.01 0.02 0.01 0.00 0.01 0.01 0.01 0.00 0.01 0.01 0.01 0.01 0.01 0.00
0.00 0.00 0.00 0.00 0.00 0.00 0.00 0.00 0.01 0.01 0.01 0.01 0.00 0.00 0.00 0.00 0.01 0.01 0.01 0.00 0.00 0.01 0.01 0.01 0.01 0.00 0.00 0.00 0.00 0.01 0.01 0.01 0.00 0.00 0.01 0.01 0.00 0.00 0.00 0.00 0.00 0.00 0.00
0.00 0.00 0.00 0.01 0.00 0.00 0.00 0.00 0.01 0.01 0.01 0.00 0.00 0.01 0.01 0.00 0.00 0.00 0.00 0.00 0.00 0.00 0.00 0.00 0.00 0.00 0.00 0.00 0.01 0.01 0.00 0.00 0.00 0.00 0.00 0.01 0.01 0.00 0.00 0.00 0.00 0.00 0.00
0.00 0.00 0.00 0.01 0.01 0.00 0.00 0.00 0.00 0.01 0.00 0.00 0.00 0.01 0.01 0.00 0.00 0.00 0.00 0.00 0.00 0.00 0.00 0.00 0.00 0.00 0.01 0.01 0.01 0.01 0.00 0.00 0.00 0.00 0.01 0.02 0.02 0.00 0.00 0.00 0.00 0.00 0.00
0.00 0.00 0.00 0.00 0.00 0.00 0.00 0.00 0.00 0.01 0.01 0.00 0.00 0.00 0.01 0.01 0.00 0.00 0.00 0.00 0.00 0.00 0.00 0.00 0.00 0.00 0.01 0.01 0.01 0.01 0.01 0.01 0.00 0.00 0.00 0.01 0.02 0.01 0.00 0.00 0.00 0.00 0.00
MSLP
1016.39 1016.35 1016.25 1016.12 1015.98 1015.87 1015.81 1015.83 1015.91 1016.06 1016.24 1016.42 1016.59 1016.71 1016.80 1016.84 1016.85 1016.84 1016.83 1016.81 1016.79 1016.77 1016.74 1016.70 1016.63 1016.55 1016.44 1016.30 1016.13 1015.93 1015.71 1015.47 1015.20 1014.93 1014.65 1014.34 1014.01 1013.62 1013.17 1012.63 1011.98 1011.23 1010.39
1016.49 1016.48 1016.43 1016.35 1016.26 1016.20 1016.20 1016.24 1016.36 1016.52 1016.71 1016.90 1017.07 1017.19 1017.28 1017.31 1017.31 1017.28 1017.24 1017.20 1017.16 1017.13 1017.09 1017.05 1016.98 1016.89 1016.77 1016.60 1016.39 1016.14 1015.86 1015.56 1015.25 1014.94 1014.63 1014.30 1013.96 1013.56 1013.09 1012.51 1011.80 1010.97 1010.03
1016.61 1016.63 1016.64 1016.62 1016.61 1016.62 1016.67 1016.76 1016.89 1017.07 1017.26 1017.45 1017.61 1017.73 1017.81 1017.84 1017.82 1017.77 1017.71 1017.64 1017.57 1017.51 1017.46 1017.40 1017.33 1017.23 1017.09 1016.90 1016.65 1016.36 1016.03 1015.68 1015.32 1014.96 1014.61 1014.26 1013.89 1013.48 1012.99 1012.38 1011.64 1010.75 1009.74
1016.76 1016.81 1016.87 1016.93 1016.99 1017.07 1017.18 1017.31 1017.47 1017.64 1017.83 1018.01 1018.16 1018.27 1018.34 1018.36 1018.33 1018.27 1018.19 1018.09 1018.00 1017.91 1017.84 1017.76 1017.67 1017.55 1017.40 1017.19 1016.92 1016.60 1016.23 1015.83 1015.43 1015.02 1014.63 1014.24 1013.84 1013.40 1012.89 1012.26 1011.50 1010.59 1009.54
1016.93 1017.01 1017.11 1017.23 1017.36 1017.51 1017.66 1017.82 1018.00 1018.17 1018.35 1018.51 1018.65 1018.76 1018.83 1018.85 1018.83 1018.77 1018.67 1018.56 1018.44 1018.33 1018.22 1018.12 1018.00 1017.87 1017.70 1017.48 1017.20 1016.86 1016.47 1016.04 1015.60 1015.16 1014.72 1014.29 1013.85 1013.38 1012.84 1012.20 1011.43 1010.52 1009.46
1017.12 1017.20 1017.33 1017.50 1017.68 1017.87 1018.06 1018.24 1018.42 1018.59 1018.75 1018.90 1019.04 1019.15 1019.24 1019.28 1019.28 1019.24 1019.15 1019.04 1018.91 1018.77 1018.64 1018.50 1018.37 1018.21 1018.03 1017.80 1017.52 1017.18 1016.78 1016.34 1015.88 1015.40 1014.92 1014.45 1013.96 1013.46 1012.89 1012.24 1011.48 1010.58 1009.54
1017.33 1017.40 1017.53 1017.71 1017.92 1018.13 1018.34 1018.53 1018.70 1018.86 1019.01 1019.16 1019.30 1019.43 1019.55 1019.64 1019.68 1019.68 1019.63 1019.53 1019.40 1019.25 1019.10 1018.94 1018.77 1018.60 1018.41 1018.18 1017.90 1017.57 1017.18 1016.75 1016.27 1015.77 1015.27 1014.75 1014.23 1013.68 1013.10 1012.44 1011.69 1010.81 1009.81
1017.55 1017.58 1017.69 1017.87 1018.08 1018.29 1018.50 1018.68 1018.84 1018.99 1019.13 1019.28 1019.44 1019.60 1019.77 1019.92 1020.02 1020.08 1020.08 1020.02 1019.91 1019.77 1019.60 1019.42 1019.23 1019.04 1018.84 1018.61 1018.35 1018.03 1017.67 1017.25 1016.78 1016.28 1015.75 1015.21 1014.65 1014.08 1013.47 1012.81 1012.07 1011.24 1010.29
1017.77 1017.75 1017.83 1017.98 1018.17 1018.37 1018.56 1018.73 1018.88 1019.01 1019.15 1019.30 1019.48 1019.69 1019.91 1020.12 1020.30 1020.43 1020.50 1020.49 1020.42 1020.28 1020.11 1019.92 1019.72 1019.51 1019.30 1019.08 1018.82 1018.53 1018.20 1017.81 1017.36 1016.87 1016.35 1015.79 1015.22 1014.63 1014.01 1013.35 1012.63 1011.84 1010.95
1017.99 1017.93 1017.97 1018.08 1018.24 1018.41 1018.58 1018.73 1018.86 1018.97 1019.11 1019.27 1019.47 1019.71 1019.98 1020.25 1020.51 1020.71 1020.84 1020.89 1020.86 1020.75 1020.59 1020.39 1020.18 1019.96 1019.74 1019.52 1019.28 1019.02 1018.72 1018.36 1017.96 1017.50 1016.99 1016.44 1015.87 1015.27 1014.65 1014.01 1013.32 1012.57 1011.75
1018.22 1018.12 1018.13 1018.20 1018.33 1018.48 1018.62 1018.74 1018.85 1018.95 1019.07 1019.23 1019.44 1019.70 1020.00 1020.32 1020.63 1020.89 1021.08 1021.18 1021.19 1021.12 1020.98 1020.79 1020.57 1020.35 1020.12 1019.90 1019.68 1019.44 1019.17 1018.86 1018.50 1018.08 1017.61 1017.09 1016.54 1015.96 1015.36 1014.73 1014.07 1013.38 1012.63
1018.45 1018.34 1018.32 1018.37 1018.48 1018.60 1018.71 1018.82 1018.90 1018.99 1019.09 1019.24 1019.43 1019.69 1020.00 1020.33 1020.66 1020.96 1021.19 1021.33 1021.39 1021.35 1021.23 1021.06 1020.85 1020.63 1020.41 1020.19 1019.98 1019.76 1019.52 1019.25 1018.94 1018.58 1018.16 1017.69 1017.18 1016.63 1016.06 1015.46 1014.84 1014.20 1013.52
1018.68 1018.58 1018.56 1018.60 1018.69 1018.80 1018.90 1018.99 1019.05 1019.12 1019.20 1019.31 1019.48 1019.71 1019.98 1020.30 1020.63 1020.93 1021.18 1021.35 1021.44 1021.44 1021.36 1021.21 1021.02 1020.81 1020.60 1020.39 1020.18 1019.98 1019.77 1019.55 1019.29 1018.98 1018.63 1018.22 1017.76 1017.26 1016.73 1016.17 1015.59 1015.00 1014.38
1018.92 1018.84 1018.84 1018.89 1018.98 1019.08 1019.18 1019.26 1019.31 1019.36 1019.41 1019.48 1019.60 1019.77 1020.00 1020.27 1020.56 1020.84 1021.08 1021.27 1021.38 1021.42 1021.38 1021.27 1021.12 1020.93 1020.73 1020.53 1020.34 1020.15 1019.97 1019.78 1019.57 1019.32 1019.03 1018.69 1018.30 1017.86 1017.37 1016.86 1016.32 1015.77 1015.20
1019.17 1019.13 1019.15 1019.22 1019.32 1019.44 1019.54 1019.62 1019.67 1019.70 1019.72 1019.75 1019.82 1019.92 1020.08 1020.28 1020.50 1020.74 1020.97 1021.15 1021.29 1021.36 1021.36 1021.30 1021.19 1021.03 1020.86 1020.68 1020.50 1020.33 1020.17 1020.01 1019.84 1019.65 1019.42 1019.15 1018.83 1018.45 1018.02 1017.55 1017.05 1016.53 1016.00
1019.44 1019.44 1019.49 1019.59 1019.71 1019.84 1019.96 1020.04 1020.10 1020.12 1020.12 1020.12 1020.12 1020.17 1020.25 1020.37 1020.53 1020.71 1020.90 1021.08 1021.23 1021.33 1021.37 1021.36 1021.30 1021.19 1021.05 1020.89 1020.73 1020.57 1020.42 1020.29 1020.16 1020.02 1019.86 1019.66 1019.40 1019.09 1018.72 1018.29 1017.82 1017.32 1016.81
1019.74 1019.77 1019.85 1019.97 1020.11 1020.26 1020.39 1020.50 1020.56 1020.59 1020.58 1020.56 1020.53 1020.51 1020.52 1020.57 1020.67 1020.79 1020.95 1021.11 1021.26 1021.39 1021.48 1021.52 1021.51 1021.44 1021.34 1021.20 1021.06 1020.92 1020.79 1020.68 1020.58 1020.49 1020.38 1020.25 1020.06 1019.81 1019.50 1019.11 1018.68 1018.20 1017.70
1020.08 1020.13 1020.22 1020.35 1020.51 1020.67 1020.82 1020.95 1021.03 1021.07 1021.07 1021.04 1020.99 1020.93 1020.90 1020.89 1020.92 1021.00 1021.12 1021.26 1021.42 1021.57 1021.69 1021.78 1021.81 1021.79 1021.72 1021.61 1021.48 1021.36 1021.24 1021.16 1021.09 1021.04 1020.99 1020.92 1020.80 1020.62 1020.37 1020.04 1019.63 1019.17 1018.68
1020.46 1020.51 1020.61 1020.74 1020.89 1021.06 1021.22 1021.36 1021.46 1021.52 1021.54 1021.52 1021.46 1021.39 1021.33 1021.29 1021.28 1021.32 1021.40 1021.53 1021.68 1021.84 1021.99 1022.11 1022.17 1022.19 1022.15 1022.07 1021.96 1021.85 1021.76 1021.69 1021.65 1021.65 1021.65 1021.64 1021.60 1021.49 1021.31 1021.03 1020.67 1020.24 1019.76
1020.86 1020.91 1020.99 1021.11 1021.25 1021.41 1021.57 1021.71 1021.83 1021.91 1021.95 1021.94 1021.90 1021.83 1021.76 1021.70 1021.67 1021.68 1021.75 1021.85 1022.00 1022.16 1022.32 1022.46 1022.55 1022.59 1022.58 1022.52 1022.43 1022.34 1022.26 1022.21 1022.21 1022.24 1022.30 1022.36 1022.39 1022.37 1022.26 1022.05 1021.75 1021.36 1020.92
1021.28 1021.31 1021.37 1021.46 1021.58 1021.71 1021.85 1021.99 1022.11 1022.20 1022.25 1022.27 1022.24 1022.20 1022.13 1022.07 1022.04 1022.03 1022.08 1022.17 1022.30 1022.46 1022.63 1022.77 1022.88 1022.94 1022.95 1022.91 1022.84 1022.76 1022.70 1022.68 1022.70 1022.78 1022.89 1023.02 1023.13 1023.19 1023.16 1023.04 1022.82 1022.50 1022.11
1021.66 1021.68 1021.72 1021.78 1021.86 1021.96 1022.06 1022.17 1022.28 1022.36 1022.43 1022.46 1022.46 1022.43 1022.39 1022.34 1022.31 1022.31 1022.34 1022.43 1022.55 1022.70 1022.86 1023.01 1023.13 1023.20 1023.22 1023.20 1023.15 1023.09 1023.04 1023.04 1023.10 1023.22 1023.38 1023.58 1023.76 1023.91 1023.98 1023.96 1023.83 1023.60 1023.28
1021.98 1022.00 1022.02 1022.05 1022.08 1022.13 1022.19 1022.26 1022.33 1022.40 1022.46 1022.50 1022.52 1022.52 1022.50 1022.48 1022.46 1022.47 1022.51 1022.59 1022.71 1022.85 1023.01 1023.16 1023.29 1023.38 1023.41 1023.41 1023.37 1023.33 1023.31 1023.33 1023.42 1023.57 1023.78 1024.03 1024.29 1024.52 1024.69 1024.77 1024.75 1024.62 1024.39
1022.19 1022.23 1022.24 1022.24 1022.23 1022.23 1022.23 1022.25 1022.28 1022.32 1022.37 1022.41 1022.45 1022.47 1022.48 1022.48 1022.49 1022.52 1022.57 1022.66 1022.78 1022.93 1023.09 1023.25 1023.40 1023.50 1023.56 1023.58 1023.57 1023.55 1023.55 1023.59 1023.69 1023.87 1024.11 1024.41 1024.73 1025.04 1025.30 1025.48 1025.56 1025.54 1025.41
1022.28 1022.33 1022.34 1022.32 1022.28 1022.23 1022.18 1022.15 1022.14 1022.15 1022.18 1022.23 1022.27 1022.32 1022.36 1022.40 1022.44 1022.49 1022.56 1022.67 1022.80 1022.97 1023.15 1023.33 1023.49 1023.62 1023.71 1023.76 1023.78 1023.79 1023.81 1023.87 1023.99 1024.18 1024.45 1024.78 1025.14 1025.51 1025.84 1026.11 1026.29 1026.36 1026.33
1022.21 1022.29 1022.32 1022.29 1022.22 1022.13 1022.04 1021.97 1021.92 1021.91 1021.93 1021.98 1022.04 1022.12 1022.19 1022.26 1022.34 1022.42 1022.53 1022.66 1022.81 1023.00 1023.20 1023.41 1023.61 1023.79 1023.92 1024.01 1024.07 1024.12 1024.16 1024.24 1024.37 1024.57 1024.84 1025.18 1025.57 1025.97 1026.36 1026.70 1026.95 1027.11 1027.17
Thickness
5713 5712 5712 5712 5712 5712 5712 5712 5711 5711 5711 5710 5710 5709 5708 5708 5708 5708 5709 5710 5711 5712 5712 5713 5714 5715 5716 5717 5718 5719 5721 5723 5724 5726 5728 5730 5733 5735 5737 5739 5741 5742 5744
5711 5710 5709 5708 5709 5709 5708 5708 5708 5707 5707 5706 5705 5705 5704 5704 5704 5704 5705 5705 5706 5707 5707 5709 5710 5711 5712 5712 5714 5715 5717 5719 5721 5722 5724 5726 5728 5730 5733 5735 5737 5738 5740
5708 5707 5706 5705 5705 5706 5705 5705 5704 5704 5703 5702 5701 5700 5700 5700 5700 5700 5701 5701 5701 5702 5702 5704 5705 5706 5707 5708 5710 5712 5713 5716 5718 5719 5720 5721 5723 5725 5728 5730 5732 5733 5735
5706 5705 5704 5703 5703 5703 5702 5702 5701 5700 5698 5698 5697 5696 5696 5696 5696 5696 5696 5697 5697 5697 5698 5699 5700 5701 5702 5704 5706 5708 5709 5713 5715 5716 5716 5717 5718 5721 5723 5726 5727 5729 5731
5704 5703 5702 5701 5701 5700 5700 5700 5697 5697 5694 5694 5693 5692 5692 5692 5693 5693 5693 5693 5693 5694 5694 5694 5695 5697 5698 5700 5702 5704 5706 5709 5710 5711 5711 5712 5713 5715 5719 5722 5723 5724 5725
5702 5701 5700 5699 5699 5698 5697 5696 5695 5694 5692 5692 5691 5689 5688 5689 5689 5689 5689 5689 5690 5690 5690 5691 5691 5692 5693 5695 5697 5699 5702 5703 5704 5705 5706 5707 5708 5710 5714 5717 5718 5719 5719
5700 5699 5698 5697 5697 5696 5695 5694 5693 5691 5689 5689 5687 5684 5684 5685 5685 5685 5686 5686 5687 5687 5687 5687 5688 5688 5689 5690 5692 5694 5696 5698 5699 5700 5701 5702 5703 5705 5707 5710 5712 5712 5712
5698 5698 5697 5696 5695 5694 5693 5693 5692 5689 5688 5687 5685 5681 5678 5678 5681 5682 5682 5683 5683 5683 5684 5684 5684 5684 5685 5685 5687 5689 5691 5693 5694 5695 5696 5696 5697 5698 5700 5702 5703 5704 5705
5697 5697 5696 5695 5694 5693 5692 5692 5691 5690 5686 5685 5685 5682 5677 5673 5674 5677 5678 5679 5679 5680 5680 5681 5681 5681 5681 5682 5683 5684 5686 5688 5689 5690 5690 5691 5692 5693 5694 5695 5696 5697 5697
5695 5695 5695 5694 5693 5693 5692 5691 5691 5690 5688 5685 5684 5683 5682 5680 5675 5671 5674 5675 5676 5677 5677 5677 5677 5677 5678 5678 5679 5680 5680 5681 5683 5684 5685 5686 5687 5688 5689 5689 5690 5690 5690
5693 5693 5693 5693 5692 5692 5691 5691 5690 5689 5688 5686 5684 5683 5681 5678 5677 5673 5669 5670 5672 5673 5673 5674 5674 5674 5674 5675 5675 5675 5676 5677 5678 5679 5680 5680 5681 5682 5683 5683 5684 5684 5684
5691 5691 5692 5692 5691 5691 5690 5690 5690 5689 5688 5686 5685 5684 5682 5679 5676 5673 5669 5667 5667 5668 5670 5671 5671 5671 5671 5671 5671 5671 5672 5672 5673 5674 5674 5675 5675 5676 5676 5677 5677 5678 5678
5688 5690 5690 5690 5690 5690 5689 5689 5688 5687 5687 5686 5684 5683 5682 5681 5680 5676 5672 5667 5665 5665 5666 5667 5668 5668 5668 5668 5667 5668 5668 5668 5668 5669 5669 5669 5669 5670 5670 5671 5671 5671 5671
5688 5689 5690 5689 5689 5689 5688 5688 5687 5686 5685 5684 5684 5682 5681 5680 5680 5678 5674 5669 5664 5662 5662 5663 5664 5664 5664 5664 5664 5664 5664 5664 5664 5664 5664 5664 5664 5664 5664 5664 5664 5664 5664
5689 5689 5688 5688 5688 5687 5687 5686 5685 5684 5683 5683 5682 5681 5680 5679 5678 5677 5675 5672 5667 5661 5658 5659 5660 5661 5661 5661 5661 5661 5661 5660 5660 5660 5659 5659 5659 5658 5658 5658 5657 5657 5657
5688 5687 5687 5686 5686 5685 5685 5684 5683 5682 5681 5680 5680 5679 5677 5676 5675 5674 5673 5671 5669 5665 5658 5657 5656 5657 5657 5657 5657 5657 5657 5657 5656 5656 5655 5654 5654 5653 5652 5652 5651 5651 5650
5686 5686 5685 5685 5684 5683 5682 5682 5680 5680 5679 5678 5677 5676 5674 5673 5672 5671 5670 5668 5666 5664 5659 5655 5654 5654 5653 5653 5653 5653 5653 5652 5652 5651 5650 5649 5648 5647 5646 5646 5645 5644 5644
5684 5684 5684 5683 5682 5681 5680 5679 5678 5677 5676 5675 5674 5673 5671 5671 5669 5668 5666 5665 5663 5661 5658 5653 5651 5650 5650 5649 5649 5649 5648 5647 5646 5646 5645 5644 5643 5642 5640 5639 5639 5638 5637
5682 5682 5682 5681 5680 5679 5678 5677 5677 5675 5674 5673 5672 5671 5670 5668 5666 5664 5663 5661 5660 5658 5655 5652 5647 5646 5645 5645 5644 5644 5643 5642 5642 5640 5639 5638 5637 5636 5635 5633 5632 5631 5630
5680 5680 5679 5679 5678 5677 5676 5675 5674 5673 5672 5671 5670 5669 5668 5667 5665 5662 5660 5658 5656 5653 5651 5648 5644 5642 5641 5640 5639 5637 5636 5636 5635 5634 5633 5632 5630 5629 5628 5627 5626 5624 5623
5678 5678 5677 5676 5676 5675 5675 5673 5672 5671 5669 5668 5667 5666 5666 5665 5663 5661 5659 5655 5653 5649 5646 5643 5640 5638 5636 5634 5633 5632 5631 5629 5628 5627 5626 5625 5624 5623 5621 5620 5618 5616 5615
5675 5675 5674 5674 5674 5674 5673 5673 5671 5669 5667 5666 5664 5663 5662 5661 5660 5658 5656 5654 5652 5648 5643 5640 5636 5634 5632 5630 5629 5628 5625 5624 5622 5621 5619 5618 5617 5615 5614 5612 5611 5609 5607
5672 5671 5671 5671 5670 5671 5671 5670 5669 5667 5664 5663 5661 5660 5659 5658 5656 5654 5652 5650 5647 5645 5643 5639 5635 5631 5629 5628 5625 5623 5620 5617 5614 5613 5612 5611 5609 5608 5606 5604 5603 5601 5599
5669 5669 5668 5668 5667 5668 5668 5667 5665 5663 5661 5659 5658 5657 5655 5653 5652 5650 5647 5644 5641 5639 5638 5635 5633 5630 5628 5625 5623 5620 5617 5613 5610 5607 5606 5603 5601 5599 5599 5597 5595 5593 5591
5667 5666 5666 5665 5664 5664 5664 5663 5662 5659 5656 5655 5654 5653 5652 5650 5648 5646 5643 5639 5636 5633 5632 5630 5628 5626 5623 5621 5618 5615 5611 5608 5604 5601 5598 5595 5593 5591 5590 5589 5586 5584 5581
5665 5664 5662 5662 5662 5661 5661 5660 5659 5656 5652 5651 5649 5648 5647 5646 5644 5641 5638 5634 5630 5628 5626 5623 5621 5619 5617 5614 5612 5609 5605 5601 5596 5593 5591 5587 5585 5582 5582 5580 5578 5575 5572